Franklin, NC

6:47 AM EDT on June 25, 2017 (GMT -0400)
Franklin

Weather History for K1A5 - March, 2013

Change the Weather History Date:

Tuesday, March 12, 2013

  Actual Average (KTOC) Record (KTOC)
Temperature  
Mean Temperature 44 °F -  
Max Temperature 56 °F 67 °F 81 °F (2016)
Min Temperature 32 °F 41 °F 39 °F (2017)
Degree Days  
Heating Degree Days 20    
Moisture  
Dew Point 32 °F    
Average Humidity 65    
Maximum Humidity 99    
Minimum Humidity 24    
Precipitation  
Precipitation 0.04 in - - ()
Sea Level Pressure  
Sea Level Pressure 29.92 in    
Wind  
Wind Speed 6 mph (NW)    
Max Wind Speed 16 mph    
Max Gust Speed 21 mph    
Visibility 10 miles    
Events Rain    
Averages and records for this station are not official NWS values.
T = Trace of Precipitation, MM = Missing Value Source: NWS Daily Summary

Daily Weather History Graph

Daily Weather History Graph

Search for Another Location

Airport or City:

Trip Planner

Search our weather history database for the weather conditions in past years. The results will help you decide how hot, cold, wet, or windy it might be!

Date:

Astronomy

Mar. 12, 2013 Rise Set
Actual Time 7:48 AM EDT 7:38 PM EDT
Civil Twilight 7:22 AM EDT 8:04 PM EDT
Nautical Twilight 6:53 AM EDT 8:33 PM EDT
Astronomical Twilight 6:23 AM EDT 9:03 PM EDT
Moon 7:57 AM EDT (3/12) 8:48 PM EDT (3/12)
Length of Visible Light 12h 41m
Length of Day
11h 50m
New Moon, 1% of the Moon is Illuminated
Mar 12
New Moon
Mar 19
First Quarter
Mar 27
Full
Apr 3
Last Quarter
Apr 10
New

Hourly Weather History & Observations

Time (EDT) Temp. Windchill Dew Point Humidity Pressure Visibility Wind Dir Wind Speed Gust Speed Precip Events Conditions
12:15 AM 49.1 °F - 48.6 °F 98% 29.81 in 7.0 mi WSW 3.5 mph - 0.01 in Rain Light Rain
12:35 AM 49.3 °F - 48.7 °F 98% 29.81 in 5.0 mi Calm Calm - 0.02 in   Heavy Drizzle
12:55 AM 49.5 °F - 49.1 °F 99% 29.81 in 4.0 mi Calm Calm - 0.02 in   Drizzle
1:15 AM 49.3 °F - 48.7 °F 98% 29.80 in 4.0 mi Calm Calm - 0.01 in   Drizzle
1:35 AM 49.5 °F - 48.9 °F 98% 29.80 in 7.0 mi WNW 4.6 mph - 0.01 in   Drizzle
1:55 AM 49.1 °F - 48.6 °F 98% 29.80 in 10.0 mi WSW 5.8 mph - 0.02 in Rain Rain
2:15 AM 48.2 °F - 46.6 °F 94% 29.81 in 10.0 mi West 9.2 mph - N/A   Overcast
2:35 AM 47.8 °F - 45.1 °F 90% 29.81 in 10.0 mi WSW 3.5 mph - N/A   Drizzle
2:55 AM 46.9 °F - 44.1 °F 90% 29.81 in 10.0 mi West 6.9 mph - N/A   Light Drizzle
3:15 AM 46.4 °F 42.9 °F 43.2 °F 88% 29.82 in 10.0 mi WNW 6.9 mph - N/A   Overcast
3:35 AM 45.7 °F 40.6 °F 42.3 °F 88% 29.82 in 10.0 mi West 10.4 mph - N/A   Overcast
3:55 AM 44.6 °F - 41.2 °F 88% 29.82 in 10.0 mi Calm Calm - N/A   Overcast
4:15 AM 44.2 °F - 41.4 °F 90% 29.81 in 10.0 mi Calm Calm - N/A   Overcast
4:35 AM 43.7 °F 40.3 °F 40.3 °F 88% 29.81 in 10.0 mi WNW 5.8 mph - N/A   Overcast
4:55 AM 43.2 °F 38.4 °F 39.9 °F 88% 29.81 in 10.0 mi WNW 8.1 mph - N/A   Overcast
5:15 AM 42.8 °F 40.1 °F 39.2 °F 87% 29.82 in 10.0 mi WNW 4.6 mph - N/A   Overcast
5:35 AM 42.4 °F 37.5 °F 38.7 °F 86% 29.82 in 10.0 mi West 8.1 mph - N/A   Overcast
5:55 AM 41.9 °F 38.2 °F 38.1 °F 86% 29.83 in 10.0 mi WNW 5.8 mph - N/A   Overcast
6:15 AM 41.0 °F 35.8 °F 37.4 °F 87% 29.83 in 10.0 mi NW 8.1 mph - N/A   Overcast
6:35 AM 40.6 °F 34.3 °F 36.7 °F 86% 29.85 in 10.0 mi NW 10.4 mph - N/A   Overcast
6:55 AM 40.1 °F 34.1 °F 35.8 °F 85% 29.85 in 10.0 mi NNW 9.2 mph - N/A   Overcast
7:15 AM 39.6 °F 34.0 °F 35.2 °F 85% 29.86 in 10.0 mi WNW 8.1 mph - N/A   Overcast
7:35 AM 39.2 °F 32.5 °F 34.7 °F 84% 29.88 in 10.0 mi WNW 10.4 mph 16.1 mph N/A   Overcast
7:55 AM 38.7 °F 32.4 °F 34.0 °F 83% 29.90 in 10.0 mi WNW 9.2 mph - N/A   Overcast
8:15 AM 38.3 °F 35.9 °F 33.8 °F 84% 29.91 in 10.0 mi NNW 3.5 mph - N/A   Overcast
8:35 AM 38.1 °F 34.6 °F 33.1 °F 82% 29.92 in 10.0 mi NW 4.6 mph - N/A   Overcast
8:55 AM 38.3 °F 31.4 °F 32.0 °F 78% 29.92 in 10.0 mi NNW 10.4 mph - N/A   Mostly Cloudy
9:15 AM 39.2 °F 35.0 °F 32.2 °F 76% 29.92 in 10.0 mi NNW 5.8 mph - N/A   Mostly Cloudy
9:35 AM 39.6 °F 34.7 °F 31.8 °F 74% 29.93 in 10.0 mi NW 6.9 mph 18.4 mph N/A   Scattered Clouds
9:55 AM 40.3 °F 37.1 °F 32.0 °F 72% 29.94 in 10.0 mi NW 4.6 mph - N/A   Clear
10:15 AM 40.6 °F 38.6 °F 31.8 °F 71% 29.94 in 10.0 mi North 3.5 mph - N/A   Clear
10:35 AM 41.2 °F 39.2 °F 32.2 °F 70% 29.93 in 10.0 mi NW 3.5 mph - N/A   Clear
10:55 AM 42.6 °F 39.0 °F 33.4 °F 70% 29.93 in 10.0 mi NNW 5.8 mph - N/A   Clear
11:15 AM 43.2 °F 39.0 °F 32.9 °F 67% 29.93 in 10.0 mi NW 6.9 mph - N/A   Clear
11:35 AM 44.4 °F 40.0 °F 33.3 °F 65% 29.93 in 10.0 mi NNW 8.1 mph 16.1 mph N/A   Clear
11:55 AM 45.3 °F 41.6 °F 33.3 °F 63% 29.94 in 10.0 mi NNW 6.9 mph 16.1 mph N/A   Clear
12:15 PM 46.2 °F 40.5 °F 34.0 °F 62% 29.94 in 10.0 mi North 12.7 mph 17.3 mph N/A   Clear
12:35 PM 47.3 °F - 33.8 °F 59% 29.95 in 10.0 mi North 10.4 mph 16.1 mph N/A   Clear
12:55 PM 49.3 °F - 33.8 °F 55% 29.94 in 10.0 mi Calm Calm - N/A   Clear
1:15 PM 51.8 °F - 32.7 °F 48% 29.94 in 10.0 mi NNW 4.6 mph 9.2 mph N/A   Clear
1:35 PM 52.2 °F - 30.6 °F 44% 29.94 in 10.0 mi NNW 10.4 mph 18.4 mph N/A   Clear
1:55 PM 53.6 °F - 31.6 °F 43% 29.94 in 10.0 mi NW 8.1 mph - N/A   Clear
2:15 PM 53.8 °F - 30.4 °F 41% 29.93 in 10.0 mi NNW 8.1 mph - N/A   Clear
2:35 PM 54.9 °F - 27.7 °F 35% 29.93 in 10.0 mi NW 8.1 mph - N/A   Clear
2:55 PM 54.9 °F - 25.9 °F 33% 29.93 in 10.0 mi NW 10.4 mph 17.3 mph N/A   Clear
3:15 PM 56.3 °F - 26.6 °F 32% 29.93 in 10.0 mi NNW 9.2 mph - N/A   Clear
3:35 PM 55.4 °F - 25.3 °F 31% 29.93 in 10.0 mi North 9.2 mph 20.7 mph N/A   Clear
3:55 PM 55.6 °F - 26.4 °F 33% 29.93 in 10.0 mi NW 9.2 mph 19.6 mph N/A   Clear
4:15 PM 56.1 °F - 23.0 °F 28% 29.93 in 10.0 mi WNW 11.5 mph 17.3 mph N/A   Clear
4:35 PM 56.1 °F - 22.3 °F 27% 29.93 in 10.0 mi NW 9.2 mph 17.3 mph N/A   Clear
4:55 PM 55.4 °F - 18.5 °F 24% 29.93 in 10.0 mi WNW 12.7 mph 19.6 mph N/A   Clear
5:15 PM 55.0 °F - 18.3 °F 24% 29.93 in 10.0 mi NNW 12.7 mph 17.3 mph N/A   Clear
5:35 PM 54.9 °F - 19.2 °F 25% 29.94 in 10.0 mi NW 13.8 mph 18.4 mph N/A   Clear
5:55 PM 54.0 °F - 20.1 °F 27% 29.95 in 10.0 mi NW 13.8 mph 19.6 mph N/A   Clear
6:15 PM 52.3 °F - 22.1 °F 31% 29.96 in 10.0 mi NW 13.8 mph 20.7 mph N/A   Clear
6:35 PM 50.9 °F - 22.5 °F 33% 29.97 in 10.0 mi WNW 11.5 mph - N/A   Clear
6:55 PM 49.8 °F - 21.6 °F 33% 29.99 in 10.0 mi NW 16.1 mph 20.7 mph N/A   Clear
7:15 PM 48.4 °F - 20.8 °F 34% 29.99 in 10.0 mi NNW 12.7 mph 19.6 mph N/A   Clear
7:35 PM 46.9 °F - 22.3 °F 38% 30.00 in 10.0 mi NNW 9.2 mph 16.1 mph N/A   Clear
7:55 PM 45.7 °F 42.7 °F 23.4 °F 41% 30.01 in 10.0 mi NNW 5.8 mph - N/A   Clear
8:15 PM 45.0 °F 40.6 °F 23.0 °F 42% 30.01 in 10.0 mi NNW 8.1 mph - N/A   Clear
8:35 PM 43.9 °F 42.3 °F 24.1 °F 46% 30.02 in 10.0 mi NNW 3.5 mph - N/A   Clear
8:55 PM 44.2 °F 39.7 °F 25.7 °F 48% 30.03 in 10.0 mi NW 8.1 mph - N/A   Clear
9:15 PM 44.1 °F 40.1 °F 26.4 °F 50% 30.04 in 10.0 mi NW 6.9 mph - N/A   Clear
9:35 PM 43.3 °F 40.7 °F 26.6 °F 52% 30.04 in 10.0 mi NW 4.6 mph - N/A   Clear
9:55 PM 42.4 °F 39.6 °F 27.1 °F 55% 30.05 in 10.0 mi NW 4.6 mph - N/A   Clear
10:15 PM 37.9 °F 35.5 °F 27.9 °F 67% 30.05 in 10.0 mi West 3.5 mph - N/A   Clear
10:35 PM 36.0 °F 32.1 °F 28.6 °F 75% 30.04 in 10.0 mi WSW 4.6 mph - N/A   Clear
10:55 PM 34.3 °F 30.2 °F 28.9 °F 81% 30.05 in 10.0 mi WSW 4.6 mph - N/A   Clear
11:15 PM 33.6 °F 28.4 °F 28.9 °F 83% 30.06 in 10.0 mi WSW 5.8 mph - N/A   Clear
11:35 PM 33.3 °F 27.9 °F 28.4 °F 82% 30.06 in 10.0 mi WSW 5.8 mph - N/A   Clear
11:55 PM 32.5 °F 28.1 °F 28.4 °F 85% 30.06 in 10.0 mi WSW 4.6 mph - N/A   Clear